星链-31308 (STARLINK-31308 )

导读

STARLINK-31308是美国SpaceX公司星链计划中的一颗卫星,于2024年3月4日发射。星链计划旨在构建全球卫星互联网星座,为全球偏远地区、海洋空域等提供高速低延迟的网络连接服务。作为该庞大星座组网中的一员,STARLINK-31308进一步扩充了星链卫星网络的覆盖能力,推动全球宽带互联网服务的普及与完善。

基本信息
目录编号:
59153
目录名称:
STARLINK-31308
国际标识:
2024-044B
轨道中心:
EARTH
卫星名称:
星链-31308
卫星全名:
星链-31308 (STARLINK-31308 )
卫星状态:
在轨 (已飞行836 天)
发射日期:
2024-03-04 UTC
国别 :
美国 (US)
星等 :
--
轨道信息
数据来源 国际轨道数据 AOE轨道数据
星历时间 2026-06-17T21:52:27+0800
16小时前
查看轨道信息
2026-06-17T07:00:00+0800
1天前
查看轨道信息
半长轴 6861.22km 6861.118km
偏心率 0.0000317 0.0002002
轨道倾角 43.000° 42.996°
近地点辐角 199.111° 189.817°
升交点赤经 216.077° 219.568°
平近点角 160.973° 358.223°
近地点 482.865km 481.607km
远地点 483.301km 484.355km
周期 94.267分钟 94.265分钟
每日圈数 15.275689 15.276029
详细信息
固有亮度:
5
最大亮度:
0.3
卫星平台:
Starlink v2.0 mini
覆盖范围:
全球
运营商:
太空探索技术公司
运营商所在国:
美国
制造商(研发单位):
太空探索技术公司
制造商所在国:
美国
使用方式:
暂无
卫星简介
星链(Starlink)计划是由太空探索技术公司(SpaceX)提出的一个巨型低轨卫星互联网星座项目,计划在2019年至2024年间在太空搭建由约1.2万颗卫星组成的“星链”网络,其中1584颗将部署在地球上空550千米处的近地轨道,并从2020年开始工作。该卫星仍在工作。
2D轨道图
3D轨道图
轨道高度分析图
轨道倾角分析图
轨道综合分析图
查看轨道综合分析图